Location: Garshuizen
(53.3675°N, 6.7248°E)
Time: 16:07:04
(UTC+00:00)

Cosmos 909 Rocket - Pass Details

Date: 15 May 2026
Orbit: 989 x 2090 km, 65.9° (Epoch: 10 June)

Event Time Altitude Azimuth Distance (km) Brightness Sun altitude
Rises 20:13:23 0° 209° (SSW) 3,750 6.9 -6.2°
Reaches altitude 10° 20:15:58 10° 207° (SSW) 2,763 6.2 -6.5°
Maximum altitude 20:22:10 69° 126° (SE) 1,065 4.0 -7.1°
Drops below altitude 10° 20:28:44 10° 44° (NE) 2,912 6.5 -7.8°
Sets 20:31:31 0° 43° (NE) 3,968 7.3 -8.1°
